星链-30119 (STARLINK-30119 )

导读 | 豆包AI

STARLINK-30119是美国SpaceX星链互联网星座的一员,于2023年6月4日发射升空,属于星链项目扩容任务卫星。星链星座旨在为全球提供低延迟、高速率的卫星互联网服务,该卫星入轨后和其他组网卫星共同推动全球网络覆盖,尤其为偏远地区用户提供互联网接入服务。

基本信息
目录编号:
56823
目录名称:
STARLINK-30119
国际标识:
2023-079A
轨道中心:
EARTH
卫星名称:
星链-30119
卫星全名:
星链-30119 (STARLINK-30119 )
卫星状态:
在轨 (已飞行1015 天)
发射日期:
2023-06-04 UTC
国别 :
美国 (US)
星等 :
--
轨道信息
数据来源 国际轨道数据
星历时间: 2026-03-15T22:00:02+0800
7小时前
查看轨道信息
半长轴: 6863.655km
偏心率: 0.000172
轨道倾角: 43.001°
近地点辐角 278.182°
升交点赤经 73.696°
平近点角 325.804°
近地点: 484.337km
远地点: 486.699km
周期: 94.318分钟
每日圈数: 15.267559
详细信息
固有亮度:
5
最大亮度:
0.5
卫星平台:
Starlink v2.0 mini
覆盖范围:
全球
运营商:
太空探索技术公司
运营商所在国:
美国
制造商(研发单位):
太空探索技术公司
制造商所在国:
美国
使用方式:
暂无
卫星简介
星链(Starlink)计划是由太空探索技术公司(SpaceX)提出的一个巨型低轨卫星互联网星座项目,计划在2019年至2024年间在太空搭建由约1.2万颗卫星组成的“星链”网络,其中1584颗将部署在地球上空550千米处的近地轨道,并从2020年开始工作。该卫星仍在工作。
2D轨道图
3D轨道图
轨道高度分析图
轨道倾角分析图
轨道综合分析图
查看轨道综合分析图